Location: Penum?ka
(16.4840°N, 80.5772°E)
Time: 02:17:27
(UTC+00:00)

USA 238 - Pass Details

Date: 19 May 2025
Orbit: 897 x 1314 km, 63.4° (Epoch: 11 June)

Event Time Altitude Azimuth Distance (km) Brightness Sun altitude
Rises 23:21:40 0° 327° (NNW) 4,176 6.7 -10.6°
Reaches altitude 10° 23:24:27 10° 323° (NW) 3,249 6.1 -10.0°
Maximum altitude 23:32:10 54° 248° (WSW) 1,549 4.2 -8.3°
Drops below altitude 10° 23:40:03 10° 173° (S) 3,320 6.1 -6.6°
Sets 23:42:58 0° 169° (SSE) 4,273 6.7 -5.9°
